Location: Cucq
(50.4773°N, 1.6202°E)
Time: 05:36:59
(UTC+00:00)

USA 229 DEB - Pass Details

Date: 07 August 2020
Orbit: 974 x 1238 km, 63.4° (Epoch: 17 September)

Event Time Altitude Azimuth Distance (km) Brightness Sun altitude
Exits shadow 02:48:35 14° 193° (SSW) 2,482 5.1 -13.6°
Maximum altitude 02:53:59 50° 122° (ESE) 1,285 4.2 -13.0°
Drops below altitude 10° 03:00:34 10° 49° (NE) 2,922 7.5 -12.3°
Sets 03:03:22 0° 45° (NE) 3,923 8.9 -12.0°
